Total_Precipitation_Accumulation
1.05 1.27 1.71 2.36 3.10 3.80 3.86 3.29 2.76 2.43 2.11 1.75 1.23 0.90 0.77 0.72 0.68 0.57 0.51 0.46 0.42 0.43 0.45 0.41 0.40 0.40 0.39 0.40 0.44 0.51 0.57 0.59 0.68 0.72 0.67 0.62 0.59 0.64 0.63 0.64 0.69 0.64 0.62
1.28 1.77 2.55 3.04 3.04 3.00 2.55 2.01 1.72 1.54 1.23 0.91 0.63 0.50 0.43 0.39 0.36 0.34 0.36 0.34 0.29 0.30 0.30 0.30 0.31 0.31 0.29 0.30 0.33 0.36 0.37 0.40 0.51 0.58 0.58 0.51 0.47 0.46 0.41 0.49 0.47 0.47 0.63
1.56 2.20 2.59 2.48 2.01 1.50 1.26 1.08 0.95 0.68 0.51 0.43 0.37 0.31 0.26 0.25 0.23 0.22 0.25 0.24 0.21 0.22 0.23 0.23 0.24 0.27 0.28 0.29 0.32 0.32 0.33 0.32 0.34 0.44 0.56 0.51 0.41 0.35 0.34 0.37 0.42 0.49 0.56
1.08 1.40 1.52 1.25 1.12 1.02 0.91 0.86 0.75 0.46 0.36 0.29 0.24 0.21 0.19 0.20 0.20 0.19 0.19 0.19 0.17 0.18 0.17 0.17 0.16 0.18 0.23 0.29 0.29 0.34 0.34 0.32 0.26 0.30 0.39 0.44 0.46 0.45 0.38 0.36 0.39 0.49 0.54
0.63 0.63 0.63 0.57 0.56 0.57 0.60 0.63 0.61 0.53 0.41 0.33 0.26 0.23 0.20 0.18 0.19 0.19 0.19 0.20 0.20 0.18 0.18 0.18 0.17 0.15 0.15 0.20 0.23 0.31 0.35 0.36 0.31 0.29 0.33 0.36 0.38 0.41 0.41 0.31 0.31 0.38 0.37
0.50 0.46 0.39 0.32 0.33 0.36 0.34 0.39 0.50 0.59 0.54 0.46 0.37 0.31 0.24 0.22 0.20 0.19 0.19 0.19 0.18 0.18 0.17 0.18 0.19 0.19 0.17 0.15 0.15 0.20 0.27 0.34 0.36 0.32 0.30 0.37 0.39 0.39 0.42 0.31 0.24 0.28 0.25
0.49 0.47 0.38 0.28 0.23 0.22 0.19 0.16 0.18 0.29 0.32 0.31 0.32 0.32 0.30 0.26 0.21 0.18 0.16 0.17 0.16 0.16 0.16 0.16 0.18 0.19 0.20 0.19 0.17 0.16 0.19 0.26 0.32 0.31 0.32 0.34 0.33 0.40 0.41 0.33 0.27 0.30 0.31
0.26 0.27 0.24 0.16 0.11 0.09 0.08 0.06 0.06 0.08 0.09 0.10 0.14 0.18 0.22 0.17 0.15 0.21 0.17 0.18 0.21 0.22 0.21 0.16 0.15 0.17 0.18 0.18 0.18 0.17 0.17 0.21 0.26 0.28 0.38 0.37 0.29 0.36 0.38 0.39 0.44 0.43 0.45
0.09 0.11 0.12 0.09 0.07 0.06 0.05 0.04 0.03 0.03 0.03 0.03 0.06 0.10 0.15 0.16 0.14 0.17 0.17 0.16 0.22 0.23 0.21 0.18 0.15 0.15 0.16 0.17 0.18 0.18 0.20 0.23 0.26 0.31 0.41 0.42 0.39 0.40 0.41 0.45 0.56 0.62 0.54
0.07 0.07 0.07 0.06 0.05 0.05 0.05 0.05 0.04 0.03 0.02 0.02 0.03 0.05 0.12 0.15 0.16 0.15 0.17 0.19 0.19 0.19 0.17 0.16 0.14 0.12 0.13 0.16 0.17 0.18 0.23 0.26 0.32 0.39 0.45 0.51 0.51 0.51 0.51 0.52 0.60 0.73 0.71
0.05 0.04 0.04 0.04 0.04 0.03 0.03 0.03 0.03 0.03 0.03 0.02 0.02 0.02 0.06 0.10 0.14 0.18 0.19 0.20 0.19 0.18 0.16 0.15 0.14 0.13 0.13 0.15 0.18 0.20 0.22 0.25 0.31 0.38 0.44 0.48 0.55 0.62 0.63 0.68 0.70 0.73 0.84
0.01 0.01 0.02 0.02 0.02 0.03 0.03 0.04 0.04 0.04 0.03 0.03 0.02 0.02 0.02 0.03 0.07 0.11 0.15 0.17 0.17 0.15 0.15 0.15 0.13 0.11 0.11 0.14 0.19 0.22 0.22 0.25 0.29 0.36 0.46 0.50 0.51 0.57 0.65 0.76 0.79 0.81 0.93
0.01 0.01 0.01 0.02 0.03 0.03 0.03 0.02 0.02 0.02 0.02 0.01 0.01 0.01 0.01 0.01 0.03 0.05 0.08 0.11 0.13 0.15 0.14 0.15 0.13 0.11 0.10 0.11 0.14 0.19 0.23 0.27 0.29 0.34 0.42 0.50 0.58 0.61 0.65 0.75 0.79 0.85 1.00
0.01 0.01 0.01 0.01 0.01 0.01 0.01 0.01 0.01 0.01 0.01 0.01 0.01 0.02 0.02 0.02 0.02 0.02 0.04 0.06 0.09 0.13 0.14 0.15 0.15 0.14 0.12 0.10 0.10 0.12 0.16 0.21 0.27 0.35 0.39 0.43 0.55 0.64 0.69 0.76 0.88 0.96 1.04
0.01 0.02 0.02 0.02 0.02 0.02 0.02 0.03 0.03 0.04 0.04 0.05 0.06 0.06 0.06 0.06 0.06 0.05 0.05 0.06 0.09 0.11 0.15 0.18 0.18 0.18 0.15 0.10 0.10 0.13 0.13 0.15 0.19 0.26 0.33 0.34 0.39 0.49 0.61 0.69 0.79 0.96 1.12
0.06 0.05 0.04 0.04 0.03 0.03 0.03 0.03 0.03 0.03 0.04 0.06 0.06 0.06 0.06 0.06 0.07 0.06 0.06 0.07 0.10 0.15 0.20 0.22 0.22 0.22 0.15 0.10 0.09 0.10 0.12 0.15 0.18 0.22 0.28 0.29 0.29 0.32 0.38 0.48 0.62 0.77 0.94
0.03 0.03 0.03 0.03 0.03 0.02 0.02 0.01 0.02 0.02 0.03 0.04 0.04 0.05 0.06 0.06 0.08 0.08 0.08 0.10 0.14 0.19 0.25 0.27 0.28 0.28 0.28 0.20 0.13 0.09 0.12 0.15 0.19 0.23 0.26 0.21 0.18 0.26 0.30 0.35 0.42 0.52 0.64
0.03 0.03 0.03 0.03 0.02 0.02 0.02 0.02 0.02 0.02 0.03 0.04 0.04 0.06 0.07 0.09 0.11 0.14 0.16 0.19 0.23 0.25 0.28 0.29 0.32 0.35 0.34 0.25 0.16 0.13 0.14 0.18 0.21 0.24 0.27 0.27 0.25 0.27 0.33 0.37 0.37 0.37 0.40
0.04 0.03 0.03 0.03 0.03 0.02 0.02 0.02 0.03 0.04 0.04 0.05 0.07 0.09 0.12 0.14 0.16 0.18 0.23 0.31 0.33 0.32 0.36 0.39 0.41 0.44 0.44 0.33 0.20 0.15 0.18 0.24 0.25 0.27 0.31 0.35 0.32 0.26 0.23 0.31 0.33 0.32 0.32
0.04 0.03 0.03 0.03 0.03 0.04 0.04 0.04 0.05 0.07 0.09 0.11 0.13 0.15 0.18 0.22 0.24 0.27 0.32 0.36 0.41 0.41 0.44 0.47 0.52 0.57 0.57 0.48 0.28 0.21 0.24 0.30 0.33 0.39 0.41 0.38 0.32 0.28 0.20 0.26 0.31 0.29 0.29
0.04 0.03 0.02 0.02 0.03 0.04 0.05 0.08 0.11 0.15 0.17 0.19 0.19 0.20 0.23 0.28 0.30 0.36 0.41 0.43 0.45 0.47 0.51 0.54 0.60 0.68 0.71 0.59 0.32 0.25 0.29 0.36 0.42 0.44 0.44 0.45 0.36 0.28 0.22 0.23 0.28 0.25 0.29
0.02 0.02 0.02 0.02 0.03 0.05 0.09 0.14 0.17 0.19 0.20 0.21 0.22 0.22 0.25 0.26 0.29 0.38 0.43 0.47 0.53 0.55 0.56 0.64 0.70 0.77 0.81 0.71 0.48 0.28 0.27 0.39 0.49 0.53 0.56 0.56 0.46 0.36 0.30 0.24 0.22 0.22 0.24
0.02 0.02 0.02 0.03 0.05 0.08 0.14 0.19 0.18 0.19 0.22 0.23 0.24 0.25 0.26 0.30 0.35 0.40 0.40 0.41 0.44 0.45 0.50 0.67 0.81 0.87 0.91 0.83 0.58 0.38 0.29 0.34 0.46 0.57 0.68 0.68 0.55 0.50 0.44 0.35 0.27 0.25 0.24
0.02 0.02 0.03 0.06 0.08 0.10 0.13 0.16 0.18 0.22 0.27 0.28 0.28 0.29 0.30 0.32 0.34 0.42 0.42 0.41 0.41 0.40 0.47 0.67 0.81 0.90 0.91 0.86 0.69 0.52 0.41 0.40 0.47 0.53 0.65 0.71 0.72 0.68 0.61 0.51 0.39 0.30 0.30
0.02 0.04 0.08 0.12 0.13 0.13 0.13 0.15 0.18 0.26 0.31 0.31 0.30 0.31 0.33 0.33 0.33 0.39 0.42 0.36 0.37 0.34 0.36 0.54 0.77 0.83 0.77 0.64 0.52 0.45 0.48 0.47 0.52 0.59 0.76 0.90 0.95 0.97 0.91 0.77 0.63 0.52 0.47
0.05 0.09 0.13 0.16 0.16 0.15 0.16 0.17 0.21 0.31 0.37 0.37 0.34 0.33 0.33 0.33 0.34 0.37 0.37 0.30 0.23 0.21 0.19 0.25 0.40 0.52 0.46 0.38 0.35 0.33 0.34 0.32 0.34 0.46 0.71 0.98 1.09 1.13 1.12 1.02 0.85 0.73 0.64